Theta_e
302 302 302 302 302 301 300 299 298 297 295 294 294 294 293 293 293 292 291 291 291 291 290 289 289 288 286 285 285 284 284 284 285 287 287 284 283 282 281 281 281 281 281 281 281 280 280 280 281 283 285 285 283 282 281 281 280 280 280 281 281 280 279 279 280 280 280 279 280
301 302 302 303 302 301 299 297 297 296 295 294 294 294 293 294 293 292 291 291 291 290 289 289 288 286 284 285 284 284 283 284 284 284 284 283 282 281 281 281 280 281 282 281 280 281 281 280 281 283 285 284 282 282 281 281 280 280 280 280 280 280 280 280 280 280 280 280 279
301 301 301 301 299 298 297 296 294 294 293 293 293 293 293 293 293 292 291 290 289 288 288 288 287 285 284 283 282 282 282 283 283 283 282 282 281 281 280 280 280 281 282 281 280 280 280 279 282 285 286 284 282 282 282 281 281 281 281 280 281 281 282 283 281 280 280 281 279
300 300 299 298 296 296 295 295 294 293 293 293 292 292 292 292 292 291 290 288 287 287 287 286 286 286 285 284 283 282 283 286 285 283 282 282 281 281 280 280 280 280 280 279 279 279 279 279 281 283 283 281 281 281 282 281 281 281 281 281 281 281 282 283 282 282 282 282 280
297 297 296 296 295 294 294 294 293 293 293 293 293 292 291 291 290 289 289 289 288 287 286 285 286 286 285 284 283 282 283 285 287 284 281 282 281 280 280 280 280 280 279 279 279 279 279 278 281 282 281 280 282 282 281 279 279 279 280 281 282 282 282 282 282 282 282 282 281
294 294 294 294 294 294 293 293 292 292 292 292 292 291 291 291 290 290 289 289 287 286 287 288 288 287 285 283 282 282 281 281 281 281 281 281 280 280 280 280 279 279 279 279 278 278 278 278 281 282 281 281 281 280 278 277 278 279 279 280 281 281 281 281 281 282 282 281 280
293 293 293 293 293 293 293 292 291 291 292 292 291 291 290 290 289 289 288 287 286 287 288 290 287 285 284 282 282 282 281 281 280 280 280 280 280 280 281 280 279 278 278 278 278 278 278 278 281 283 284 286 284 281 278 277 278 279 280 280 281 281 280 279 280 281 281 279 279
293 293 293 293 292 292 292 291 291 291 292 292 291 290 289 289 288 287 287 286 286 287 287 285 282 281 281 282 282 282 282 281 281 280 279 279 279 279 279 278 278 278 278 278 278 278 277 278 281 281 282 283 283 281 278 276 277 278 279 279 280 280 279 278 278 279 280 279 279
292 292 292 291 291 291 291 290 291 291 291 290 289 288 288 288 287 287 287 287 287 286 284 282 281 280 280 281 281 281 281 281 281 280 279 279 280 280 279 279 279 279 278 277 277 277 277 278 280 280 280 282 282 280 278 276 277 277 278 278 279 279 278 278 278 278 278 278 279
291 291 291 291 290 290 290 290 290 290 289 289 288 289 290 291 288 287 286 287 286 284 282 281 280 280 281 281 281 280 280 279 280 279 280 282 282 281 280 279 279 279 279 277 277 277 277 278 279 279 278 278 278 277 277 276 277 277 278 279 280 279 278 278 277 278 278 279 279
291 290 290 290 290 290 290 290 290 290 289 288 288 288 288 289 287 286 285 285 284 283 282 280 280 281 281 281 280 280 280 279 279 279 279 281 281 280 279 279 279 279 279 278 277 277 277 278 278 278 278 277 277 276 276 276 276 277 277 277 278 278 278 279 278 278 279 280 279
290 290 289 289 289 290 290 290 289 289 288 287 287 286 285 284 284 284 285 283 284 283 282 280 280 280 281 281 280 280 280 278 278 279 279 279 279 278 278 278 279 278 278 278 277 277 278 278 278 278 278 277 277 277 277 276 276 276 277 277 277 277 278 280 280 280 279 279 279
289 289 289 289 289 289 289 289 288 288 287 286 285 285 284 283 283 284 284 283 284 283 281 281 281 281 280 280 279 279 278 278 278 279 280 279 279 278 278 279 279 278 278 277 276 277 277 277 277 278 278 278 277 277 277 276 276 277 278 278 278 278 279 281 281 280 280 279 280
289 289 288 288 289 289 288 288 287 287 286 285 284 283 283 282 283 283 282 282 283 282 280 280 282 282 281 280 279 279 278 278 278 278 279 280 279 278 278 278 278 278 278 277 276 276 277 277 277 277 278 278 278 278 277 276 277 278 278 279 279 280 280 281 281 281 280 280 281
288 288 288 288 288 288 288 287 287 286 286 285 283 282 281 281 283 283 282 281 281 280 279 280 280 281 282 280 279 278 278 278 278 279 280 281 279 279 279 279 279 278 278 277 276 276 277 277 277 277 278 278 278 278 277 277 277 278 279 279 280 280 281 282 281 281 281 280 281
288 288 288 288 288 287 287 286 286 286 285 284 282 281 281 281 281 283 283 281 280 279 279 280 279 279 280 282 280 279 278 278 278 279 279 280 280 279 279 279 279 279 278 278 277 277 277 277 277 277 277 278 278 278 278 278 278 278 279 279 280 280 281 282 282 281 281 281 282
287 287 287 287 287 286 286 285 285 285 284 283 282 281 280 280 281 283 284 283 280 280 280 280 279 278 279 281 281 280 279 278 279 279 280 280 280 280 279 279 280 279 278 278 278 278 278 277 277 277 277 277 278 278 278 279 279 279 279 280 280 280 281 283 283 282 282 282 283
286 286 286 286 286 285 285 284 284 284 283 282 281 281 280 280 281 282 283 283 281 280 281 280 278 278 278 279 279 280 281 279 279 279 280 280 279 279 279 279 279 279 278 277 278 278 278 278 277 277 277 277 277 278 279 279 279 279 280 280 281 281 282 282 282 282 282 282 285
285 285 285 285 285 285 285 286 285 283 282 281 281 280 280 280 280 280 280 281 281 280 280 280 279 278 278 278 278 280 282 281 280 279 279 279 278 278 278 278 278 278 277 277 277 278 278 278 278 278 278 278 278 278 279 279 280 280 280 281 281 282 282 282 282 282 283 284 287
284 285 285 284 284 284 285 285 284 282 281 280 280 280 280 280 279 280 280 280 281 280 279 279 279 279 279 278 278 279 281 281 279 279 279 278 278 278 278 278 278 277 277 277 277 278 278 278 278 278 279 279 280 280 280 280 280 281 281 282 282 283 283 283 283 284 285 286 287
284 284 283 282 282 282 282 282 281 280 280 280 280 280 280 279 279 280 280 280 280 279 278 279 279 280 280 279 279 279 279 281 279 278 278 278 279 279 279 279 278 278 277 277 278 278 278 278 279 279 280 281 281 282 282 282 281 282 282 284 285 285 284 284 284 285 286 287 287
283 282 281 281 281 281 281 280 279 279 279 280 279 279 279 279 279 279 279 280 279 279 278 279 279 279 279 279 279 279 279 279 278 278 278 278 279 279 280 280 278 278 278 278 278 278 279 279 280 281 281 282 282 283 283 284 286 286 285 285 285 285 285 285 285 286 287 287 288
281 280 280 280 280 282 283 280 279 279 280 280 279 279 279 279 279 278 278 278 279 279 279 278 278 278 278 278 278 278 277 278 277 278 278 277 278 278 278 278 277 278 278 279 279 279 280 281 282 283 283 283 284 285 287 288 288 287 286 286 286 286 286 286 286 286 287 288 289
280 280 280 280 280 280 280 280 280 280 280 280 279 279 279 279 278 278 278 278 278 278 278 278 279 278 277 277 277 277 277 278 279 279 279 278 278 278 278 277 278 279 280 280 283 284 286 287 287 287 287 287 288 289 289 289 290 289 288 288 287 286 286 288 289 289 289 290 291
279 281 281 280 280 279 280 280 281 281 281 280 279 279 279 279 279 278 278 279 279 278 278 278 278 278 277 277 277 277 277 278 280 280 280 280 279 279 278 278 279 280 281 284 292 297 299 298 295 293 291 290 292 292 292 292 292 292 291 288 289 290 290 292 291 290 289 290 289
279 280 281 279 279 280 280 280 280 280 279 279 279 279 279 279 279 279 279 280 279 278 278 277 277 279 281 279 278 277 277 278 279 279 279 279 279 279 280 280 280 281 283 289 296 300 301 301 300 298 295 293 294 294 294 294 294 293 291 288 290 292 293 292 291 289 288 286 286
280 280 280 279 280 280 280 279 279 279 279 279 279 279 278 277 277 278 279 280 279 278 277 277 278 282 284 281 279 279 279 279 278 278 278 278 279 279 280 280 281 282 286 294 298 301 301 301 301 300 298 296 295 295 295 294 294 291 289 288 289 289 290 290 289 288 287 286 286
280 280 279 280 280 280 279 278 279 279 280 279 279 279 278 277 278 279 279 279 279 278 278 278 280 281 281 279 279 280 280 279 278 278 278 278 279 279 279 280 281 284 290 297 300 301 301 301 301 301 300 298 296 295 295 294 292 290 288 289 288 287 287 288 288 287 287 287 287
280 280 280 281 281 280 279 279 280 280 279 278 278 278 278 278 278 279 279 279 279 280 280 279 281 280 279 279 279 279 279 279 278 278 278 278 278 279 280 281 281 286 292 298 300 300 301 301 301 301 301 300 298 296 294 294 292 290 288 287 286 286 286 286 286 286 287 286 286
279 280 281 282 281 280 280 280 279 279 278 277 277 278 278 279 279 280 280 280 281 281 281 280 280 279 280 280 279 279 279 279 279 278 278 278 279 281 282 284 283 286 291 297 299 300 300 300 301 301 301 301 299 297 294 293 290 289 288 286 285 285 285 285 285 285 286 286 286
279 280 281 282 281 281 280 279 278 277 277 277 278 278 279 280 281 281 280 280 281 282 282 280 279 279 279 278 278 278 279 279 279 279 279 279 282 283 283 282 281 285 291 297 299 300 300 300 300 300 300 300 299 296 294 292 289 288 287 286 285 285 285 285 285 285 285 285 285
279 280 281 282 281 280 279 278 277 277 277 278 278 279 280 280 280 279 279 279 280 280 279 278 279 279 279 279 279 279 279 279 280 280 280 281 281 280 281 281 281 284 291 298 299 299 299 299 300 300 300 300 299 296 292 289 288 287 287 286 285 285 285 286 286 286 285 285 284
279 280 281 282 281 280 278 277 277 277 277 278 278 279 279 279 278 278 277 278 279 278 278 279 280 281 281 281 281 281 281 281 282 284 284 284 282 280 280 281 281 286 293 298 299 299 299 299 299 299 299 299 298 294 290 288 288 288 287 286 285 285 285 286 286 286 286 285 284
279 280 281 281 281 280 278 277 277 277 278 278 279 279 279 279 279 279 280 281 279 278 278 279 279 280 280 280 280 280 281 284 283 282 280 280 279 279 280 280 281 287 295 298 298 298 299 299 299 299 299 299 296 291 288 286 288 288 287 286 285 285 285 287 287 286 285 284 284
279 280 281 281 280 279 278 277 277 278 279 280 280 279 278 278 279 280 281 284 282 279 277 277 277 277 277 277 277 278 280 282 281 280 279 279 279 279 280 280 281 288 295 297 298 298 298 298 298 299 299 298 294 290 287 287 288 287 286 284 284 285 287 287 286 285 284 284 284
280 281 281 280 279 279 278 278 278 279 279 280 281 280 279 278 278 278 280 284 283 281 278 277 276 276 277 277 277 279 281 280 280 280 280 281 280 279 279 279 280 286 293 297 297 297 298 298 298 298 298 296 292 289 288 288 287 286 284 284 286 287 288 287 286 285 284 284 284
280 281 281 281 280 279 279 278 279 280 280 281 280 280 279 279 278 278 279 283 280 279 279 278 278 278 278 279 278 280 280 279 279 280 281 283 281 280 278 279 279 284 291 295 296 297 297 297 298 298 297 294 291 289 288 287 285 285 285 287 288 288 286 286 285 284 285 284 285
279 280 281 281 281 280 279 278 279 280 281 281 280 279 278 278 278 278 279 284 280 280 279 278 278 279 279 278 279 280 280 279 280 280 280 281 280 279 279 279 279 283 288 294 295 296 297 297 298 298 297 295 292 289 287 285 285 286 289 289 287 285 284 285 284 284 285 285 290
280 281 281 282 282 281 280 279 280 281 281 280 279 278 277 277 277 278 281 284 280 279 280 279 279 279 279 281 281 281 280 279 280 281 280 279 279 282 284 282 281 282 286 293 294 296 296 297 297 298 297 296 292 289 287 286 288 289 289 286 285 284 284 284 284 284 285 286 293
280 281 281 281 282 281 280 280 280 280 280 280 279 278 278 278 279 281 282 281 278 278 278 278 279 279 281 285 283 281 280 279 278 279 280 281 282 286 290 285 281 281 284 290 293 295 296 297 297 298 297 296 292 290 291 291 291 288 285 283 284 284 285 285 284 284 285 286 291
280 281 281 281 281 281 281 281 281 280 279 279 279 279 280 281 281 280 279 277 277 277 277 278 279 279 280 284 282 280 278 278 278 279 280 283 283 286 287 283 280 279 281 286 291 295 296 296 297 297 297 296 294 293 294 293 290 286 284 284 285 286 286 285 285 284 285 285 287
Wind_Speed
6 5 4 4 3 3 3 3 3 3 3 4 4 4 4 5 5 5 4 4 4 4 4 3 3 2 2 1 1 2 3 3 3 4 4 3 2 2 1 1 1 2 2 2 1 1 1 1 1 1 1 1 1 1 0 0 1 1 1 1 1 1 2 2 2 2 2 3 2
7 6 6 5 5 4 3 3 3 3 3 3 4 5 5 5 5 5 4 4 4 4 3 3 2 2 2 1 1 2 3 4 4 4 3 3 2 1 1 1 1 1 1 1 1 1 1 1 1 1 1 1 1 1 0 0 1 1 1 1 1 1 2 2 2 3 3 3 2
8 7 6 6 5 5 5 4 4 3 4 3 4 4 5 5 5 5 5 4 3 3 3 3 2 2 2 2 2 2 3 4 4 3 3 2 2 2 2 1 1 1 1 1 1 1 1 1 1 1 1 1 1 1 0 0 0 1 1 1 1 1 1 2 2 2 2 2 2
7 7 7 7 7 7 6 5 5 5 5 4 5 5 5 5 5 4 4 4 3 3 3 3 2 2 2 2 3 3 3 3 3 3 2 2 2 2 2 2 2 2 1 1 1 1 1 1 1 1 1 1 1 0 0 0 0 0 1 1 1 1 2 2 2 2 2 1 2
7 7 7 7 8 7 7 6 7 6 6 5 5 5 5 4 4 4 4 4 3 3 2 2 2 2 2 3 4 4 3 3 3 2 2 2 2 2 2 2 2 1 1 1 1 1 1 1 1 1 1 1 1 0 1 0 0 0 1 1 1 1 2 2 2 1 1 1 1
6 6 6 6 7 7 6 6 7 7 6 6 6 6 5 4 4 4 4 4 3 3 2 3 3 3 3 4 4 4 3 2 2 2 2 2 1 2 2 2 2 1 1 1 1 2 2 1 1 1 0 0 0 0 0 1 0 0 1 1 1 1 1 1 1 1 0 1 1
7 7 7 7 7 7 7 6 7 7 6 7 8 8 7 5 5 5 5 4 3 2 2 3 3 4 4 4 3 3 2 2 2 2 2 1 1 1 1 1 1 1 1 1 2 2 2 1 1 1 0 0 0 0 0 1 1 0 1 2 2 1 1 1 1 0 0 1 2
7 7 7 7 8 8 8 8 7 7 6 6 7 8 7 7 6 6 5 4 3 2 2 2 3 3 3 3 3 2 2 2 2 2 2 1 1 1 1 1 1 2 1 1 1 1 1 1 1 0 0 1 0 0 0 1 1 0 1 2 2 1 1 1 1 1 1 2 2
6 6 6 7 7 8 8 8 7 7 7 7 7 7 7 7 7 6 5 4 3 2 2 2 3 3 3 3 2 2 2 1 1 1 1 1 1 1 1 2 2 2 1 1 1 1 1 1 0 0 0 1 1 1 0 1 0 1 2 2 2 2 2 1 1 1 1 2 3
7 6 6 7 7 7 8 7 8 8 8 7 6 6 6 7 6 5 4 3 3 3 2 2 2 2 2 2 2 2 1 1 1 1 1 1 1 1 1 1 2 2 1 1 1 1 1 1 0 0 1 1 1 1 1 1 1 1 2 2 2 3 3 2 1 2 2 2 4
7 6 6 6 7 7 8 7 7 7 7 7 5 5 5 5 4 3 3 3 3 3 2 1 2 2 2 2 2 1 1 1 1 1 1 1 1 1 1 1 1 1 1 1 0 0 1 0 0 1 1 1 1 1 1 1 1 1 2 2 2 3 4 4 2 2 2 3 4
7 6 6 6 7 7 8 7 6 6 6 6 5 4 4 3 3 3 3 3 3 3 2 1 2 2 2 2 1 1 1 1 2 1 1 1 1 1 1 1 1 1 1 1 0 0 1 0 0 1 2 2 1 1 1 1 1 2 2 3 2 3 4 5 4 3 2 2 3
7 6 6 6 7 8 8 7 5 5 5 5 4 4 3 2 2 2 2 3 3 2 2 1 1 2 2 2 2 1 1 1 2 1 1 1 1 0 1 1 1 1 1 1 1 1 1 1 1 1 2 3 2 2 2 2 2 2 3 3 3 4 5 6 5 3 2 2 3
6 6 6 6 7 7 7 6 5 5 5 4 3 2 2 1 1 1 2 3 3 2 2 1 1 1 2 2 2 2 2 2 2 1 1 0 0 0 1 1 1 1 1 1 1 1 1 2 2 2 3 4 4 3 3 3 3 3 4 4 5 5 6 7 6 4 2 2 3
6 6 6 5 6 6 6 5 4 4 4 3 2 1 1 1 1 1 2 3 3 2 2 2 2 2 1 2 2 2 2 2 1 1 1 0 0 1 1 1 1 1 1 1 1 2 2 3 3 3 3 4 4 4 4 3 4 4 5 5 6 6 7 7 6 5 3 3 3
5 5 5 5 5 5 5 4 3 3 3 2 1 1 1 1 1 1 2 3 2 2 2 2 2 2 2 2 2 2 2 1 1 1 0 0 1 1 1 1 1 2 2 1 2 2 2 3 3 4 4 4 5 5 5 4 5 5 6 6 6 7 7 7 6 5 4 3 4
5 4 4 4 5 5 4 3 3 2 2 2 1 1 1 1 1 2 2 3 3 3 3 2 2 2 2 2 1 1 1 1 1 1 1 1 1 1 1 2 2 2 2 2 2 3 3 3 3 4 4 5 5 5 5 5 5 6 6 6 7 7 7 7 6 5 4 4 5
4 4 3 4 5 5 4 3 3 2 2 2 1 1 1 1 2 2 2 3 3 3 3 2 2 1 1 1 1 0 1 1 1 1 1 1 2 2 2 2 2 2 2 2 3 3 4 4 4 4 4 5 5 6 6 6 6 6 6 6 7 7 7 7 6 5 4 5 6
4 3 3 4 4 4 4 3 3 2 2 1 1 1 1 2 2 2 2 2 2 3 3 2 1 1 1 0 0 0 1 1 1 1 2 2 2 2 2 3 3 3 3 3 3 4 4 4 4 4 4 5 5 5 6 6 6 6 6 6 7 7 7 7 6 5 5 5 6
3 3 3 3 3 3 3 2 2 2 1 1 2 2 2 2 2 3 3 2 2 2 3 2 1 1 0 0 0 0 1 1 1 2 2 2 2 2 3 3 3 3 3 3 3 4 4 5 5 5 5 5 6 6 6 6 6 6 6 6 6 7 7 7 6 5 5 5 6
3 2 2 2 2 2 2 1 1 2 2 2 2 2 2 2 2 3 2 2 2 2 2 2 1 1 0 0 0 1 1 1 1 2 2 2 2 3 3 3 3 3 3 3 3 4 4 5 5 6 6 6 6 7 7 6 6 6 6 6 6 6 6 6 5 5 5 5 5
1 1 1 1 2 2 2 2 2 2 2 2 2 2 2 2 2 2 2 2 2 2 2 1 1 1 1 1 1 1 1 1 2 2 2 2 3 3 3 2 2 3 3 3 4 4 5 5 6 6 6 6 7 7 7 6 6 6 6 6 6 6 6 5 4 4 4 4 4
1 1 2 2 2 2 2 2 2 2 2 2 2 2 2 2 2 2 2 2 2 1 1 0 1 1 1 1 1 1 1 2 2 2 2 3 3 3 2 2 2 2 3 4 4 4 5 5 6 7 7 6 7 7 7 6 6 5 6 6 6 5 5 3 3 3 3 4 4
1 1 1 2 2 2 2 2 2 2 2 2 2 2 2 2 2 2 2 2 1 1 0 0 1 1 1 1 1 1 1 1 2 2 2 2 2 2 2 2 2 2 3 4 5 5 6 5 6 6 6 6 6 6 6 5 5 5 5 6 5 4 3 2 3 3 4 5 5
1 1 2 2 2 2 2 2 2 1 1 1 2 2 2 2 2 2 2 1 1 0 0 1 1 1 1 1 2 2 1 1 1 2 3 3 3 2 2 2 2 3 3 5 8 10 10 9 7 5 5 5 6 5 5 5 5 4 4 3 3 2 3 3 4 4 5 5 5
1 1 2 2 2 2 2 1 1 1 1 1 2 2 2 2 2 2 1 1 0 0 1 1 1 1 1 1 1 1 1 1 1 1 2 3 4 4 4 3 3 3 4 6 10 12 13 13 12 10 7 5 5 4 3 2 2 2 2 1 1 2 2 3 4 5 6 6 6
1 2 2 2 2 2 1 1 1 1 1 1 2 2 2 2 1 1 1 1 0 1 1 1 1 1 1 1 1 1 1 1 1 1 1 2 3 4 4 4 4 4 5 8 11 12 13 13 14 13 11 7 4 2 1 1 1 1 1 1 1 1 2 3 4 5 6 5 6
2 2 2 2 2 1 1 1 1 1 1 1 2 2 2 2 1 1 1 0 0 1 1 1 1 1 1 0 1 1 1 1 1 1 1 1 2 3 4 4 4 5 7 11 12 13 13 13 14 14 13 10 4 1 1 2 1 1 1 1 1 2 3 3 4 5 5 6 5
2 2 2 2 2 1 1 1 1 1 1 1 1 2 2 1 1 1 1 0 0 1 1 1 1 0 0 1 1 1 2 2 1 1 1 2 2 3 4 4 4 6 9 12 12 12 13 13 14 14 14 13 6 1 2 2 2 2 2 2 2 3 3 4 4 4 5 5 5
2 3 3 3 2 2 1 1 1 1 1 1 2 2 2 1 1 1 1 1 1 1 1 1 1 0 1 1 1 2 2 2 1 1 1 2 3 3 4 5 5 6 9 12 12 12 13 13 14 14 14 15 9 3 1 2 2 2 2 2 3 3 4 4 5 5 5 5 5
2 3 3 3 3 2 2 1 1 1 1 2 2 2 1 1 1 2 2 2 2 2 1 1 0 0 1 1 1 1 2 2 2 1 1 2 3 4 5 5 5 7 9 11 11 12 13 13 14 14 15 16 11 4 1 2 3 3 3 3 4 4 4 4 5 5 5 5 5
3 3 3 4 3 2 2 1 1 1 1 2 2 1 1 2 2 2 2 2 2 1 1 0 0 1 1 1 1 2 2 2 2 2 2 2 3 4 4 6 6 7 8 11 11 12 13 14 14 14 15 16 11 5 0 2 2 3 3 3 4 5 5 4 4 5 5 6 5
3 3 3 4 3 2 2 1 1 1 2 2 1 1 1 2 1 2 2 2 2 1 1 1 0 1 1 1 2 2 2 3 3 3 3 2 2 3 4 5 5 6 8 10 11 12 13 14 15 15 16 16 10 5 0 2 2 2 3 3 4 4 5 5 5 5 6 6 6
3 4 3 3 3 2 2 1 1 2 2 1 1 1 1 1 2 2 2 2 2 2 1 1 1 1 1 1 1 2 3 3 3 3 2 2 2 3 4 4 4 6 9 10 11 13 14 15 15 16 16 16 9 4 1 2 2 3 3 3 4 4 4 5 5 6 6 6 6
4 4 4 4 3 3 2 2 2 2 2 1 1 2 2 2 2 2 2 2 1 1 1 0 1 1 1 1 1 2 2 3 3 3 3 2 2 3 4 4 4 7 9 11 12 13 14 15 15 16 15 13 7 3 1 2 3 3 3 3 4 5 5 6 6 6 6 6 6
5 6 5 4 4 3 3 3 3 2 2 2 2 2 2 2 2 2 2 1 1 1 0 0 0 0 1 1 1 2 2 2 3 3 3 2 2 2 3 4 5 7 9 11 12 13 14 15 15 15 14 9 4 2 2 2 2 2 3 3 4 5 6 6 6 6 6 6 6
6 6 6 5 5 4 4 3 3 3 3 3 3 3 2 2 2 2 1 1 1 1 0 0 1 1 1 1 2 2 2 2 2 3 4 3 3 3 3 4 5 6 9 11 12 14 14 15 15 14 12 7 3 2 1 1 1 2 2 3 5 6 6 6 5 6 6 6 6
6 6 6 6 6 5 5 4 4 4 4 4 3 2 2 2 2 2 1 2 2 1 0 0 1 1 2 2 2 2 2 2 2 3 3 4 3 3 3 4 5 6 8 10 12 13 14 14 14 14 11 6 3 2 1 1 2 2 3 4 4 5 5 5 4 5 6 7 9
7 7 7 7 6 6 5 5 5 5 4 3 2 2 2 2 2 2 2 2 2 2 1 1 1 2 2 2 2 3 3 2 2 2 3 4 4 4 4 3 4 5 7 10 12 13 14 14 14 14 12 8 3 1 1 2 2 3 3 4 4 5 5 5 4 4 5 7 11
7 7 6 6 6 6 6 6 5 5 4 3 2 2 2 2 2 1 1 1 2 2 2 1 1 1 2 2 2 3 3 3 2 2 3 4 5 6 5 4 4 6 8 10 12 13 13 13 14 13 12 7 3 2 2 2 2 3 3 4 4 5 5 4 4 4 4 6 9
6 6 6 6 6 6 6 6 5 4 3 3 3 3 2 2 1 1 1 1 1 1 1 1 1 1 2 2 2 2 3 4 3 3 3 4 5 6 6 4 5 6 7 9 11 12 13 13 14 13 12 8 4 2 2 2 2 2 3 4 5 5 4 4 4 4 4 5 5
Wind_Direction
113 115 116 118 114 111 110 117 131 138 139 135 130 125 120 114 112 112 111 111 114 118 120 117 116 114 112 112 119 114 103 88 77 74 73 73 70 66 61 55 58 60 62 59 57 59 64 66 74 82 91 104 106 100 87 91 113 120 137 191 196 187 182 191 216 222 220 217 214
127 127 125 123 122 122 124 130 135 135 131 125 122 119 116 112 113 113 112 110 114 117 117 112 110 113 117 123 115 103 94 86 79 73 68 64 59 53 50 50 51 57 62 64 64 67 73 80 89 92 92 92 83 73 61 114 119 124 146 222 212 198 193 210 223 223 218 215 212
132 132 131 132 136 138 140 140 138 132 123 113 109 108 108 108 111 112 112 111 110 110 110 112 116 121 124 123 91 81 81 84 81 76 70 60 46 39 38 44 44 44 49 60 65 71 78 86 97 104 99 85 72 62 36 233 128 138 205 237 223 211 210 228 229 223 216 214 206
135 138 141 143 146 146 145 143 139 131 122 112 104 100 100 102 106 109 111 110 104 104 109 119 124 124 118 107 81 68 63 69 76 78 74 60 42 33 32 38 39 36 36 45 58 64 68 70 78 89 97 99 98 114 238 225 130 191 229 236 224 223 229 242 235 224 216 219 210
139 142 143 143 141 140 138 138 133 128 120 112 105 101 100 102 106 109 109 106 105 109 118 125 122 112 96 84 75 67 59 54 62 70 73 58 38 27 27 34 36 31 28 36 47 51 52 52 55 73 92 117 143 193 214 182 139 243 254 253 234 229 235 250 245 232 221 231 231
133 128 124 124 127 128 129 129 125 121 116 111 109 108 108 111 113 113 113 114 118 121 121 116 106 94 81 71 71 69 63 51 49 57 63 56 35 27 26 30 27 23 23 31 39 45 48 48 45 50 80 134 182 209 196 135 132 275 289 284 254 236 231 246 244 237 240 269 277
119 117 117 120 124 125 125 122 117 114 112 110 111 114 117 119 116 117 119 123 123 119 108 96 87 83 79 76 75 74 71 61 51 50 55 53 37 30 28 25 20 20 22 29 35 40 45 52 46 24 358 19 225 208 161 122 122 285 295 287 270 248 227 238 242 233 247 270 277
107 112 117 123 124 123 120 118 114 111 110 110 115 119 122 122 121 121 121 116 111 105 90 76 77 82 86 90 90 88 82 74 60 51 48 47 35 25 20 24 24 21 20 26 36 39 40 49 52 24 326 310 278 247 161 118 114 215 271 277 278 270 245 235 237 225 231 249 267
103 108 113 115 114 113 113 112 110 110 110 111 116 122 126 126 125 121 116 110 107 93 81 76 82 87 90 93 94 93 88 85 77 65 49 42 32 21 13 19 21 16 12 21 39 45 47 46 42 327 269 272 269 262 208 118 137 243 261 267 281 286 281 252 230 218 223 232 254
112 111 110 106 105 104 104 103 104 106 108 111 114 118 121 121 117 114 113 114 100 86 78 87 94 95 92 92 93 95 96 99 99 89 69 45 33 23 16 13 12 7 2 2 34 57 65 53 7 298 269 245 249 253 243 148 198 252 262 266 283 294 294 279 239 216 219 229 244
112 111 109 108 107 105 103 101 101 103 106 109 109 108 107 107 104 105 106 102 93 90 93 107 107 103 99 96 100 106 112 113 106 95 79 52 32 23 15 5 359 349 340 332 33 82 84 64 325 300 285 257 235 232 227 195 210 248 264 270 280 290 292 285 260 228 217 225 241
106 105 104 106 108 106 104 103 103 104 105 107 105 101 97 95 98 102 102 95 100 105 111 108 107 106 106 106 112 113 110 105 98 86 71 40 20 3 355 340 324 307 294 271 206 151 138 164 269 289 289 278 252 226 214 204 214 243 262 272 273 278 281 281 272 250 220 215 237
106 104 104 104 104 103 102 102 103 104 104 105 104 101 97 91 93 98 104 105 110 113 110 89 95 103 109 115 115 109 100 94 88 80 66 32 4 341 323 299 284 276 264 242 198 174 171 187 215 256 275 280 268 243 215 203 212 235 254 268 272 272 273 275 274 267 245 223 242
104 104 104 103 100 100 101 101 103 104 106 108 107 105 100 95 82 92 102 108 110 109 102 84 77 86 99 111 108 101 94 89 85 80 68 15 320 295 282 276 268 263 254 237 202 187 191 208 216 231 250 267 267 255 229 206 214 227 241 255 263 267 270 274 274 273 267 255 258
101 101 101 100 97 98 100 104 107 109 112 116 119 114 104 105 84 84 90 95 97 95 88 79 66 58 64 85 93 93 90 87 89 90 88 310 269 262 263 274 274 270 263 251 224 208 208 217 220 225 235 251 260 257 243 222 222 228 236 244 252 259 266 271 273 273 268 259 264
99 98 97 97 98 101 104 111 115 118 121 130 135 125 109 112 81 79 84 88 87 81 76 72 63 49 43 54 76 86 89 91 104 117 142 248 269 268 268 273 275 272 267 267 258 241 228 222 220 221 228 241 252 255 251 240 235 236 240 243 248 254 260 266 269 268 262 251 258
98 98 99 103 108 113 118 125 127 130 132 139 139 129 110 105 81 77 79 85 86 81 75 67 60 53 48 45 57 80 100 119 146 164 186 223 249 259 264 263 263 259 255 259 267 264 255 240 227 221 225 235 246 252 253 250 248 247 248 249 250 254 258 263 264 261 255 249 253
104 106 109 114 121 127 132 139 140 141 141 141 139 124 99 89 85 77 73 75 83 86 84 73 58 57 60 58 39 97 149 161 187 204 211 220 230 242 251 255 253 246 240 241 254 262 264 259 244 233 230 235 243 248 251 252 253 253 254 255 256 257 259 260 257 250 243 242 251
117 120 122 126 131 136 139 143 143 141 138 136 123 105 86 79 85 82 76 67 75 85 91 87 66 53 57 81 279 231 206 188 212 223 228 227 229 238 246 253 251 243 235 234 245 254 261 264 258 250 245 245 249 252 253 252 253 254 256 256 258 259 260 259 253 244 236 237 248
129 131 132 134 134 135 136 137 134 130 122 112 100 91 84 79 81 83 83 77 75 82 88 91 80 64 40 354 275 254 240 219 224 235 240 235 236 241 246 252 252 247 239 236 245 253 260 265 264 260 256 256 259 261 261 258 258 258 257 258 257 258 258 258 254 248 243 242 247
133 131 127 116 115 116 115 109 104 102 98 90 87 87 86 81 79 83 88 91 84 82 85 91 95 99 80 288 272 262 253 240 232 239 245 243 243 243 243 246 253 253 252 248 253 258 263 266 266 265 263 262 263 263 264 265 265 263 260 259 258 257 258 259 259 258 256 255 254
120 95 78 72 83 89 90 83 82 81 81 79 79 80 81 80 79 80 83 84 82 83 88 105 138 176 201 225 243 256 261 260 245 242 243 245 247 246 242 238 249 262 270 272 270 270 271 272 270 266 264 263 263 263 262 261 262 263 262 262 262 263 265 268 267 267 265 264 262
79 62 59 64 70 74 77 75 72 73 73 72 70 71 75 76 73 70 67 67 73 81 98 160 199 212 217 218 226 242 261 274 267 256 246 241 247 249 244 232 247 269 280 281 276 273 270 271 268 264 260 257 259 259 258 254 254 255 258 260 264 269 274 279 278 277 275 273 269
65 66 65 63 64 67 68 70 69 72 73 73 71 73 73 73 67 64 62 63 69 79 134 230 237 233 228 221 217 222 240 274 292 290 279 263 261 262 262 254 265 276 280 280 278 275 272 269 262 257 254 251 253 253 251 246 243 243 246 252 260 271 283 289 286 281 278 275 271
74 77 76 67 69 68 68 69 74 78 79 76 74 74 74 73 71 70 71 69 67 64 247 257 253 241 227 218 214 212 214 227 285 302 306 306 306 306 304 300 296 290 287 285 291 294 296 299 295 282 265 257 257 252 245 237 236 235 236 240 250 270 287 288 283 277 272 270 265
87 87 85 75 77 77 75 72 76 78 78 75 76 78 78 78 77 79 82 85 75 288 267 259 259 241 222 211 220 222 221 215 235 277 302 312 318 320 319 316 309 300 294 294 301 305 308 310 310 306 297 279 271 263 251 232 229 226 222 215 226 251 269 275 276 275 273 268 260
109 107 100 86 84 83 80 72 67 71 74 84 89 90 88 81 77 79 85 97 241 267 262 255 254 245 231 213 254 274 275 256 242 251 277 300 312 314 313 311 307 301 298 301 305 308 309 311 310 309 306 294 287 277 243 197 181 181 181 181 202 225 242 254 263 269 273 273 268
137 130 116 100 97 90 78 68 80 95 106 106 106 101 95 83 81 87 99 146 255 267 264 253 243 239 233 243 291 294 292 285 274 265 271 288 297 298 299 300 298 298 301 305 308 310 311 311 310 309 307 304 307 309 142 155 158 172 181 180 206 220 230 239 251 259 265 272 276
148 137 129 127 129 119 104 111 143 154 147 117 103 95 93 90 98 116 146 196 234 246 249 247 243 243 306 321 301 298 296 291 279 277 293 306 302 296 292 292 292 298 303 309 310 311 311 311 310 310 311 312 322 357 130 156 168 182 194 201 212 222 229 236 244 252 259 266 274
146 143 143 148 149 152 159 176 178 163 126 101 96 97 102 114 138 167 184 196 207 215 217 217 223 274 305 292 300 305 305 296 287 292 312 315 308 302 298 297 296 300 305 309 310 311 311 311 312 313 314 315 323 333 140 161 175 190 204 217 223 228 233 239 246 253 259 266 274
147 148 149 153 158 169 180 185 158 118 102 99 103 113 130 158 183 196 200 203 212 216 213 177 173 269 278 270 288 297 301 301 304 305 299 298 299 298 297 299 297 298 302 307 309 311 312 313 315 316 316 315 323 328 153 172 186 196 209 222 228 233 236 242 248 255 261 268 275
147 149 151 157 168 177 179 157 124 109 108 109 120 141 171 196 207 215 216 217 216 218 212 152 12 324 314 310 310 303 301 305 306 300 291 285 290 294 296 298 296 296 299 305 310 313 315 316 317 317 316 315 320 325 266 183 194 207 220 231 235 237 240 246 254 261 265 268 271
147 149 154 163 172 174 165 139 125 115 113 117 136 172 201 220 232 238 236 229 216 208 198 181 184 310 311 310 311 308 305 300 297 296 295 295 291 292 295 297 293 294 300 308 314 318 319 319 319 317 315 314 319 327 326 193 203 217 230 239 242 243 246 251 259 264 267 269 269
153 155 161 169 170 166 157 141 128 119 119 133 174 203 217 224 235 239 234 222 209 196 189 178 184 211 238 250 268 283 290 294 293 296 298 299 298 297 296 294 289 295 303 313 319 321 321 320 319 317 315 315 319 323 290 212 219 226 235 245 252 256 258 261 263 265 266 267 267
161 162 167 173 169 162 155 147 134 132 140 170 207 223 227 226 227 228 226 212 188 173 164 175 181 213 237 244 237 250 269 286 293 295 296 298 303 302 298 292 288 297 306 317 322 323 322 321 319 317 316 317 319 316 274 231 227 229 237 251 263 269 271 271 270 269 268 266 263
168 168 170 172 168 164 159 154 148 152 169 198 216 224 229 228 229 229 225 202 148 118 71 8 8 324 288 276 259 249 252 266 287 296 301 301 302 298 294 290 288 298 308 318 322 323 323 321 320 318 317 318 318 307 272 241 233 234 243 257 266 271 273 274 275 274 271 268 262
173 171 169 169 169 168 165 159 158 170 190 211 217 221 223 226 233 234 222 172 125 100 20 341 331 298 274 265 266 260 255 251 278 292 298 298 292 284 282 285 285 293 303 313 319 322 323 322 320 319 318 318 315 301 273 247 241 244 252 260 266 269 270 273 273 273 271 268 264
177 172 169 167 170 170 167 163 170 185 200 213 215 216 219 222 231 230 213 175 153 154 194 269 264 258 253 255 270 275 273 259 265 278 287 290 279 268 264 273 278 285 295 307 317 321 323 323 321 320 319 319 317 299 257 237 242 251 258 263 269 271 271 271 268 268 267 265 271
177 173 169 168 169 169 169 172 183 195 202 207 208 211 217 224 224 219 203 172 157 158 174 212 237 248 259 276 291 295 291 280 266 264 269 275 272 269 267 267 273 282 293 305 315 321 323 322 320 319 319 321 314 279 229 225 243 257 264 270 275 276 275 270 263 261 263 265 277
173 171 169 169 168 169 172 180 192 199 199 194 197 203 209 212 207 193 169 145 143 150 164 196 231 257 280 298 300 301 299 296 280 264 260 267 276 285 291 287 281 285 293 303 313 319 321 321 320 319 319 319 303 255 229 231 248 262 271 274 277 280 280 277 265 260 262 267 278
167 168 167 168 167 169 174 184 196 199 196 189 194 198 195 183 167 147 129 115 127 139 159 195 247 276 291 300 297 295 295 296 288 275 267 273 284 294 302 297 287 286 290 298 309 315 319 320 319 318 317 314 301 272 247 243 252 265 272 276 279 283 286 287 282 272 265 265 271